Time,TemperatureF,DewpointF,PressureIn,WindDirection,WindDirectionDegrees,WindSpeedMPH,WindSpeedGustMPH,Humidity,HourlyPrecipIn,Conditions,Clouds,dailyrainin,SoftwareType,DateUTC
2013-03-10 00:10:00,46.6,30.4,30.00,NW,315,1.7,-999.0,53,-99.99,,,0.00,Acu-Link.com,2013-03-10 05:10:00,
2013-03-10 00:25:00,46.6,30.4,30.00,SSE,157,4.2,-999.0,53,-99.99,,,0.00,Acu-Link.com,2013-03-10 05:25:00,
2013-03-10 00:41:00,46.9,30.2,30.00,North,0,2.2,-999.0,52,-99.99,,,0.00,Acu-Link.com,2013-03-10 05:41:00,
2013-03-10 00:56:00,47.1,30.4,29.99,NE,45,3.7,-999.0,52,-99.99,,,0.00,Acu-Link.com,2013-03-10 05:56:00,
2013-03-10 01:11:00,46.9,30.7,29.99,East,90,2.7,-999.0,53,-99.99,,,0.00,Acu-Link.com,2013-03-10 06:11:00,
2013-03-10 01:26:00,46.8,30.6,29.99,East,90,3.2,-999.0,53,-99.99,,,0.00,Acu-Link.com,2013-03-10 06:26:00,
2013-03-10 01:42:00,47.1,29.9,29.98,NE,45,2.7,-999.0,51,-99.99,,,0.00,Acu-Link.com,2013-03-10 06:42:00,
2013-03-10 01:57:00,46.9,30.2,29.98,SE,135,2.2,-999.0,52,-99.99,,,0.00,Acu-Link.com,2013-03-10 06:57:00,
2013-03-10 03:12:00,46.9,29.7,29.98,West,270,2.2,-999.0,51,-99.99,,,0.00,Acu-Link.com,2013-03-10 07:12:00,
2013-03-10 03:27:00,47.3,29.6,29.96,NNW,337,1.7,-999.0,50,-99.99,,,0.00,Acu-Link.com,2013-03-10 07:27:00,
2013-03-10 03:42:00,47.7,30.0,29.96,West,270,0.0,-999.0,50,-99.99,,,0.00,Acu-Link.com,2013-03-10 07:42:00,
2013-03-10 03:58:00,47.8,29.6,29.95,WNW,292,2.2,-999.0,49,-99.99,,,0.00,Acu-Link.com,2013-03-10 07:58:00,
2013-03-10 04:13:00,47.8,29.6,29.94,North,0,3.7,-999.0,49,-99.99,,,0.00,Acu-Link.com,2013-03-10 08:13:00,
2013-03-10 04:28:00,47.7,29.5,29.94,WNW,292,2.2,-999.0,49,-99.99,,,0.00,Acu-Link.com,2013-03-10 08:28:00,
2013-03-10 04:43:00,47.8,29.6,29.94,East,90,2.2,-999.0,49,-99.99,,,0.00,Acu-Link.com,2013-03-10 08:43:00,
2013-03-10 04:58:00,47.8,29.6,29.93,West,270,2.7,-999.0,49,-99.99,,,0.00,Acu-Link.com,2013-03-10 08:58:00,
2013-03-10 05:14:00,47.8,29.6,29.93,NW,315,3.2,-999.0,49,-99.99,,,0.00,Acu-Link.com,2013-03-10 09:14:00,
2013-03-10 05:29:00,47.8,29.6,29.95,West,270,3.2,-999.0,49,-99.99,,,0.00,Acu-Link.com,2013-03-10 09:29:00,
2013-03-10 05:44:00,47.7,30.0,29.95,ENE,67,2.2,-999.0,50,-99.99,,,0.00,Acu-Link.com,2013-03-10 09:44:00,
2013-03-10 05:59:00,47.8,29.6,29.96,West,270,2.2,-999.0,49,-99.99,,,0.00,Acu-Link.com,2013-03-10 09:59:00,
2013-03-10 06:14:00,47.8,30.1,29.95,NNW,337,1.7,-999.0,50,-99.99,,,0.00,Acu-Link.com,2013-03-10 10:14:00,
2013-03-10 06:30:00,48.0,29.8,29.97,SW,225,2.7,-999.0,49,-99.99,,,0.00,Acu-Link.com,2013-03-10 10:30:00,
2013-03-10 06:45:00,48.0,30.3,29.96,North,0,2.7,-999.0,50,-99.99,,,0.00,Acu-Link.com,2013-03-10 10:45:00,
2013-03-10 07:00:00,48.6,30.3,29.96,West,270,3.7,-999.0,49,-99.99,,,0.00,Acu-Link.com,2013-03-10 11:00:00,
2013-03-10 07:15:00,48.6,30.3,29.98,WSW,247,4.7,-999.0,49,-99.99,,,0.00,Acu-Link.com,2013-03-10 11:15:00,
2013-03-10 07:31:00,48.6,30.8,29.97,WSW,247,3.7,-999.0,50,-99.99,,,0.00,Acu-Link.com,2013-03-10 11:31:00,
2013-03-10 07:46:00,48.9,31.1,29.97,West,270,2.7,-999.0,50,-99.99,,,0.00,Acu-Link.com,2013-03-10 11:46:00,
2013-03-10 08:01:00,48.9,33.0,29.96,WSW,247,2.7,-999.0,54,-99.99,,,0.00,Acu-Link.com,2013-03-10 12:01:00,
2013-03-10 08:16:00,48.6,34.5,29.97,NNW,337,2.2,-999.0,58,-99.99,,,0.00,Acu-Link.com,2013-03-10 12:16:00,
2013-03-10 08:31:00,47.8,35.8,29.98,NE,45,3.7,-999.0,63,-99.99,,,0.00,Acu-Link.com,2013-03-10 12:31:00,
2013-03-10 08:47:00,47.8,35.0,29.98,NE,45,3.2,-999.0,61,-99.99,,,0.00,Acu-Link.com,2013-03-10 12:47:00,
2013-03-10 09:02:00,48.0,34.4,29.97,NNW,337,3.7,-999.0,59,-99.99,,,0.00,Acu-Link.com,2013-03-10 13:02:00,
2013-03-10 09:17:00,48.4,34.7,29.98,SW,225,2.7,-999.0,59,-99.99,,,0.00,Acu-Link.com,2013-03-10 13:17:00,
2013-03-10 09:32:00,49.1,34.5,29.98,West,270,3.2,-999.0,57,-99.99,,,0.00,Acu-Link.com,2013-03-10 13:32:00,
2013-03-10 09:47:00,49.6,34.6,29.98,West,270,3.2,-999.0,56,-99.99,,,0.00,Acu-Link.com,2013-03-10 13:47:00,
2013-03-10 10:03:00,50.4,34.8,29.98,West,270,2.2,-999.0,55,-99.99,,,0.00,Acu-Link.com,2013-03-10 14:03:00,
2013-03-10 10:18:00,51.6,34.6,29.97,WSW,247,3.7,-999.0,52,-99.99,,,0.00,Acu-Link.com,2013-03-10 14:18:00,
2013-03-10 10:33:00,53.4,34.7,29.98,NW,315,4.7,-999.0,49,-99.99,,,0.00,Acu-Link.com,2013-03-10 14:33:00,
2013-03-10 10:49:00,54.3,34.5,29.97,West,270,5.3,-999.0,47,-99.99,,,0.00,Acu-Link.com,2013-03-10 14:49:00,
2013-03-10 11:04:00,55.4,35.0,29.97,West,270,2.7,-999.0,46,-99.99,,,0.00,Acu-Link.com,2013-03-10 15:04:00,
2013-03-10 11:19:00,56.8,34.5,29.97,SW,225,7.3,-999.0,43,-99.99,,,0.00,Acu-Link.com,2013-03-10 15:19:00,
2013-03-10 11:34:00,57.7,35.9,29.96,WNW,292,4.7,-999.0,44,-99.99,,,0.00,Acu-Link.com,2013-03-10 15:34:00,
2013-03-10 11:49:00,58.1,35.7,29.95,SW,225,9.4,-999.0,43,-99.99,,,0.00,Acu-Link.com,2013-03-10 15:49:00,
2013-03-10 12:05:00,59.4,36.3,29.95,SSW,202,4.7,-999.0,42,-99.99,,,0.00,Acu-Link.com,2013-03-10 16:05:00,
2013-03-10 12:20:00,59.5,37.0,29.94,SW,225,3.7,-999.0,43,-99.99,,,0.00,Acu-Link.com,2013-03-10 16:20:00,
2013-03-10 12:35:00,61.9,38.6,29.94,SSW,202,4.7,-999.0,42,-99.99,,,0.00,Acu-Link.com,2013-03-10 16:35:00,
2013-03-10 12:50:00,61.9,37.9,29.93,North,0,4.7,-999.0,41,-99.99,,,0.00,Acu-Link.com,2013-03-10 16:50:00,
2013-03-10 13:05:00,62.8,38.7,29.92,West,270,5.8,-999.0,41,-99.99,,,0.00,Acu-Link.com,2013-03-10 17:05:00,
2013-03-10 13:21:00,63.0,38.3,29.92,NNE,22,5.8,-999.0,40,-99.99,,,0.00,Acu-Link.com,2013-03-10 17:21:00,
2013-03-10 13:36:00,63.9,38.5,29.91,WNW,292,2.7,-999.0,39,-99.99,,,0.00,Acu-Link.com,2013-03-10 17:36:00,
2013-03-10 13:51:00,63.7,38.3,29.90,NNE,22,6.8,-999.0,39,-99.99,,,0.00,Acu-Link.com,2013-03-10 17:51:00,
2013-03-10 14:06:00,63.3,37.9,29.91,South,180,3.7,-999.0,39,-99.99,,,0.00,Acu-Link.com,2013-03-10 18:06:00,
2013-03-10 14:21:00,64.8,37.9,29.91,SSW,202,4.7,-999.0,37,-99.99,,,0.00,Acu-Link.com,2013-03-10 18:21:00,
2013-03-10 14:37:00,65.5,39.2,29.88,SW,225,6.3,-999.0,38,-99.99,,,0.00,Acu-Link.com,2013-03-10 18:37:00,
2013-03-10 14:52:00,64.2,38.7,29.88,West,270,3.7,-999.0,39,-99.99,,,0.00,Acu-Link.com,2013-03-10 18:52:00,
2013-03-10 15:07:00,64.4,37.6,29.89,North,0,5.3,-999.0,37,-99.99,,,0.00,Acu-Link.com,2013-03-10 19:07:00,
2013-03-10 15:22:00,66.4,37.9,29.88,SSW,202,5.3,-999.0,35,-99.99,,,0.00,Acu-Link.com,2013-03-10 19:22:00,
2013-03-10 15:38:00,64.4,38.9,29.87,NNW,337,2.7,-999.0,39,-99.99,,,0.00,Acu-Link.com,2013-03-10 19:38:00,
2013-03-10 15:53:00,65.5,37.8,29.88,WSW,247,2.7,-999.0,36,-99.99,,,0.00,Acu-Link.com,2013-03-10 19:53:00,
2013-03-10 16:08:00,66.6,37.4,29.88,West,270,3.7,-999.0,34,-99.99,,,0.00,Acu-Link.com,2013-03-10 20:08:00,
2013-03-10 16:23:00,65.7,36.6,29.88,WSW,247,3.7,-999.0,34,-99.99,,,0.00,Acu-Link.com,2013-03-10 20:23:00,
2013-03-10 16:38:00,67.1,37.0,29.87,WSW,247,4.2,-999.0,33,-99.99,,,0.00,Acu-Link.com,2013-03-10 20:38:00,
2013-03-10 16:54:00,66.9,37.6,29.87,West,270,3.7,-999.0,34,-99.99,,,0.00,Acu-Link.com,2013-03-10 20:54:00,
2013-03-10 17:09:00,66.7,36.7,29.87,SSW,202,7.3,-999.0,33,-99.99,,,0.00,Acu-Link.com,2013-03-10 21:09:00,
2013-03-10 17:24:00,67.1,37.0,29.88,ENE,67,2.7,-999.0,33,-99.99,,,0.00,Acu-Link.com,2013-03-10 21:24:00,
2013-03-10 17:40:00,66.9,36.9,29.86,SSE,157,3.2,-999.0,33,-99.99,,,0.00,Acu-Link.com,2013-03-10 21:40:00,
2013-03-10 17:55:00,66.9,36.9,29.87,NW,315,2.2,-999.0,33,-99.99,,,0.00,Acu-Link.com,2013-03-10 21:55:00,
2013-03-10 18:10:00,67.3,37.2,29.85,West,270,7.3,-999.0,33,-99.99,,,0.00,Acu-Link.com,2013-03-10 22:10:00,
2013-03-10 18:25:00,65.5,37.1,29.84,SW,225,3.7,-999.0,35,-99.99,,,0.00,Acu-Link.com,2013-03-10 22:25:00,
2013-03-10 18:40:00,64.6,37.0,29.85,WSW,247,2.7,-999.0,36,-99.99,,,0.00,Acu-Link.com,2013-03-10 22:40:00,
2013-03-10 18:56:00,63.7,36.9,29.85,NE,45,2.2,-999.0,37,-99.99,,,0.00,Acu-Link.com,2013-03-10 22:56:00,
2013-03-10 19:11:00,62.8,36.1,29.84,NW,315,2.2,-999.0,37,-99.99,,,0.00,Acu-Link.com,2013-03-10 23:11:00,
2013-03-10 19:26:00,62.1,36.2,29.84,NE,45,1.7,-999.0,38,-99.99,,,0.00,Acu-Link.com,2013-03-10 23:26:00,
2013-03-10 19:41:00,61.3,36.1,29.83,West,270,2.7,-999.0,39,-99.99,,,0.00,Acu-Link.com,2013-03-10 23:41:00,
2013-03-10 20:12:00,59.9,36.1,29.83,ENE,67,2.2,-999.0,41,-99.99,,,0.00,Acu-Link.com,2013-03-11 00:12:00,
2013-03-10 20:27:00,60.1,36.3,29.83,SE,135,1.7,-999.0,41,-99.99,,,0.00,Acu-Link.com,2013-03-11 00:27:00,
2013-03-10 20:57:00,60.3,35.9,29.82,ENE,67,3.7,-999.0,40,-99.99,,,0.00,Acu-Link.com,2013-03-11 00:57:00,
2013-03-10 21:28:00,60.4,35.3,29.81,WSW,247,2.2,-999.0,39,-99.99,,,0.00,Acu-Link.com,2013-03-11 01:28:00,
2013-03-10 21:43:00,60.3,35.2,29.81,NE,45,2.2,-999.0,39,-99.99,,,0.00,Acu-Link.com,2013-03-11 01:43:00,
2013-03-10 21:58:00,60.6,35.5,29.81,NE,45,1.7,-999.0,39,-99.99,,,0.00,Acu-Link.com,2013-03-11 01:58:00,
2013-03-10 22:13:00,60.4,35.3,29.80,West,270,2.2,-999.0,39,-99.99,,,0.00,Acu-Link.com,2013-03-11 02:13:00,
2013-03-10 22:29:00,60.6,35.5,29.81,ENE,67,3.2,-999.0,39,-99.99,,,0.00,Acu-Link.com,2013-03-11 02:29:00,
2013-03-10 22:44:00,61.0,35.9,29.80,East,90,4.2,-999.0,39,-99.99,,,0.00,Acu-Link.com,2013-03-11 02:44:00,
2013-03-10 22:59:00,61.2,35.4,29.80,NE,45,2.7,-999.0,38,-99.99,,,0.00,Acu-Link.com,2013-03-11 02:59:00,
2013-03-10 23:14:00,61.0,35.2,29.78,NW,315,3.2,-999.0,38,-99.99,,,0.00,Acu-Link.com,2013-03-11 03:14:00,
2013-03-10 23:29:00,61.2,34.7,29.78,NE,45,2.7,-999.0,37,-99.99,,,0.00,Acu-Link.com,2013-03-11 03:29:00,
2013-03-10 23:45:00,60.8,35.0,29.79,NW,315,2.2,-999.0,38,-99.99,,,0.00,Acu-Link.com,2013-03-11 03:45:00,